[[{"header":{"parameterUnit":"m.s-1","parameterCategory":2,"la1":30.2991,"la2":30.254,"lo1":-89.0895,"lo2":-89.0444,"dy":0.0017,"dx":0.0017,"nx":28,"ny":28,"refTime":"2024-06-10T03:00:00:Z","depth":"0","parameterNumber":2,"parameterNumberName":"U-component_of_CURRENTS"},"data":[0,0,0,0,0,0,0,0,0,0,0,0,0,0,0,0,0,0,0,0,0,0,0,0,0,0,0,0,0,0,0,0,0,0,0,0,0,0,0,0,0,0,0,0,0,0,0,0,0,0,0,0,0,0,0,0,0,0,0.4206,0.421,0,0.4577,0.4581,0.4584,0.4627,0.4625,0.4622,0.4619,0.4653,0.4656,0.466,0,0,0,0,0,0,0,0,0,0,0,0,0,0.37,0.3707,0.4205,0.4211,0.4216,0.4577,0.4581,0.4585,0.4628,0.4625,0.4621,0.4618,0.4651,0.4656,0.466,0,0,0,0,0,0,0,0,0,0,0,0,0,0.3971,0.3709,0.4204,0.4288,0.43,0.4576,0.4581,0.4586,0.4629,0.4624,0.462,0.4616,0.465,0.4655,0.466,0.4778,0,0,0.4677,0.4679,0,0,0,0,0,0,0,0,0.3955,0.3988,0.427,0.4283,0.4297,0.456,0.4416,0.4637,0.463,0.4494,0.4619,0.4614,0.4599,0.4609,0.468,0.478,0.4781,0.4677,0.468,0.4683,0.4684,0,0,0,0,0,0,0,0.3936,0.3973,0.4343,0.4277,0.4293,0.4365,0.4396,0.4459,0.4552,0.4505,0.4512,0.457,0.4602,0.4675,0.468,0.4782,0.4677,0.4682,0.4685,0.4687,0.4849,0.485,0,0,0,0,0,0,0.3907,0.3956,0.4331,0.4355,0.4122,0.4378,0.4412,0.4472,0.4559,0.4574,0.4573,0.457,0.4668,0.4674,0.4681,0.4755,0.4683,0.4687,0.4691,0.4848,0.4849,0.485,0,0,0,0,0,0,0.3894,0.3937,0.4316,0.417,0.4224,0.439,0.4458,0.4482,0.4559,0.4616,0.4621,0.4625,0.4665,0.4673,0.4728,0.4757,0.469,0.4695,0.4847,0.4848,0.485,0.4946,0,0,0,0,0,0,0.3878,0.393,0.3969,0.4169,0.4232,0.45,0.4464,0.4492,0.4605,0.4605,0.4663,0.4662,0.4662,0.472,0.4733,0.4763,0.4699,0.4845,0.4847,0.4849,0.4941,0.495,0.4958,0,0,0,0,0,0.3859,0.3946,0.3968,0.4015,0.4278,0.4505,0.4545,0.464,0.4611,0.4683,0.4685,0.4661,0.474,0.4728,0.4742,0.4774,0.4844,0.4847,0.4849,0.4937,0.4948,0.4958,0,0,0,0,0,0,0.3764,0.3967,0.3993,0.4138,0.431,0.4515,0.4609,0.4658,0.4732,0.4707,0.4708,0.4712,0.4772,0.4761,0.4746,0.482,0.4777,0.4782,0.4838,0.4849,0.4858,0.4838,0.4703,0,0,0,0,0,0.376,0.3866,0.4068,0.419,0.4274,0.4435,0.4537,0.4608,0.4708,0.4739,0.477,0.4777,0.4805,0.4812,0.4853,0.4914,0.4909,0.4929,0.4938,0.4946,0.4937,0.496,0.4971,0.4859,0.4859,0.4859,0,0,0.376,0.3887,0.3948,0.4176,0.4309,0.4463,0.4484,0.4661,0.475,0.4727,0.4825,0.4835,0.4832,0.4895,0.4915,0.488,0.4983,0.4949,0.4956,0.4942,0.4964,0.4975,0.4985,0.4861,0.486,0.486,0,0,0.3848,0.3927,0.4055,0.4191,0.4406,0.4506,0.4554,0.4755,0.4799,0.4918,0.4891,0.4907,0.4989,0.4976,0.4975,0.5056,0.5045,0.5064,0.5083,0.5108,0.5117,0.5126,0.5171,0.5182,0.5049,0.5049,0.5049,0,0.3834,0.4016,0.4133,0.4292,0.4397,0.4516,0.4663,0.4758,0.4935,0.4951,0.4946,0.5019,0.502,0.5046,0.506,0.5076,0.5097,0.505,0.5121,0.5128,0.5135,0.5179,0.519,0.5054,0.5053,0.5053,0.5052,0,0.4035,0.4157,0.4253,0.4456,0.458,0.4738,0.487,0.4952,0.4991,0.5058,0.5115,0.5129,0.5143,0.5154,0.5134,0.5171,0.5178,0.5149,0.5098,0.5152,0.5196,0.5206,0.5061,0.5059,0.5058,0.5056,0,0,0.4053,0.433,0.4358,0.4436,0.4665,0.4781,0.4904,0.5042,0.5067,0.5181,0.5218,0.5257,0.5235,0.523,0.5208,0.5217,0.5294,0.5201,0.52,0.5253,0.5379,0.524,0.5237,0.5288,0.5289,0.5291,0.5405,0,0.417,0.4427,0.4541,0.4731,0.4861,0.4947,0.5034,0.5137,0.5194,0.5252,0.5253,0.5288,0.5273,0.5261,0.5281,0.5289,0.5319,0.5267,0.5311,0.5312,0.5186,0.5242,0.4943,0.5005,0.5414,0.5416,0.5417,0,0.4328,0.447,0.4669,0.4815,0.4872,0.4965,0.5053,0.5156,0.5234,0.5263,0.5297,0.5316,0.5348,0.5319,0.5384,0.5359,0.5376,0.5385,0.5389,0.5222,0.5188,0.5007,0.5007,0.4939,0.5432,0.543,0.5429,0,0.4281,0.4537,0.466,0.4733,0.4931,0.4965,0.5046,0.5137,0.5174,0.5258,0.5277,0.5343,0.5353,0.5407,0.5448,0.542,0.5529,0.5486,0.539,0.5383,0.5111,0.5075,0.5039,0.5536,0.5536,0.5536,0.5535,0,0.4355,0.4454,0.4626,0.47,0.4773,0.4916,0.4962,0.5041,0.5121,0.5153,0.5254,0.5278,0.5372,0.5449,0.5488,0.5481,0.5569,0.5402,0.5394,0.5138,0.5105,0.5015,0.4984,0.554,0.5539,0.5538,0.5537,0,0.4302,0.4439,0.4563,0.4727,0.476,0.4799,0.4907,0.4939,0.5025,0.5074,0.5101,0.5235,0.5321,0.5433,0.5523,0.5489,0.536,0.5504,0.5211,0.5163,0.4917,0.4901,0.4671,0.4544,0.5375,0.5372,0.537,0,0.4308,0.4373,0.4521,0.4564,0.4633,0.4703,0.4748,0.4863,0.4902,0.5033,0.5052,0.5166,0.5208,0.5319,0.5284,0.5329,0.5263,0.5087,0.4938,0.4862,0.4843,0.4711,0.4613,0.4653,0.4644,0.4638,0.4633,0,0.4277,0.4307,0.4393,0.4477,0.4526,0.4587,0.4666,0.4667,0.4798,0.4827,0.4897,0.4942,0.5013,0.4889,0.4942,0.4936,0.4805,0.4945,0.4928,0.4313,0.41,0.3987,0.467,0.4573,0.4579,0.4583,0.4587,0.4589,0.4187,0.4215,0.43,0.4349,0.4416,0.4446,0.4395,0.4487,0.4487,0.447,0.466,0.4609,0.459,0.4559,0.4546,0.4316,0.4362,0.417,0.4182,0.4078,0.3841,0.4402,0.4247,0.4251,0.4255,0.4258,0.426,0,0.4028,0.4096,0.4176,0.421,0.4195,0.4286,0.4303,0.4199,0.4106,0.4211,0.4205,0.4102,0.3961,0.3955,0.3754,0.3606,0.3456,0.3547,0.3308,0.3271,0.382,0.3675,0.3309,0.3309,0.3309,0.3309,0.3309,0.3309,0.3952,0.3955,0.4002,0.394,0.3959,0.3836,0.3777,0.3684,0.3689,0.3535,0.3441,0.3485,0.3547,0.3465,0.3277,0.3193,0.3023,0.2799,0.294,0.3364,0.3424,0.3482,0.3342,0.2911,0.2911,0.2194,0.2189,0.2185]},{"header":{"parameterUnit":"m.s-1","parameterCategory":2,"la1":30.2991,"la2":30.254,"lo1":-89.0895,"lo2":-89.0444,"dy":0.0017,"dx":0.0017,"nx":28,"ny":28,"refTime":"2024-06-10T03:00:00:Z","depth":"0","parameterNumber":3,"parameterNumberName":"V-component_of_CURRENTS"},"data":[0,0,0,0,0,0,0,0,0,0,0,0,0,0,0,0,0,0,0,0,0,0,0,0,0,0,0,0,0,0,0,0,0,0,0,0,0,0,0,0,0,0,0,0,0,0,0,0,0,0,0,0,0,0,0,0,0,0,-0.0463,-0.0466,0,-0.0736,-0.0739,-0.0742,-0.0845,-0.0844,-0.0844,-0.0843,-0.0974,-0.0978,-0.0982,0,0,0,0,0,0,0,0,0,0,0,0,0,-0.0232,-0.0234,-0.0462,-0.0466,-0.047,-0.0735,-0.0739,-0.0742,-0.0845,-0.0844,-0.0843,-0.0843,-0.0973,-0.0978,-0.0983,0,0,0,0,0,0,0,0,0,0,0,0,0,-0.0398,-0.0235,-0.0462,-0.0555,-0.0566,-0.0735,-0.0739,-0.0743,-0.0845,-0.0844,-0.0843,-0.0842,-0.0971,-0.0977,-0.0983,-0.1039,0,0,-0.1002,-0.1004,0,0,0,0,0,0,0,0,-0.0388,-0.0406,-0.0537,-0.0549,-0.0561,-0.0758,-0.0706,-0.0836,-0.0845,-0.0736,-0.0843,-0.0842,-0.0891,-0.0904,-0.0955,-0.1045,-0.1051,-0.1002,-0.1006,-0.1009,-0.101,0,0,0,0,0,0,0,-0.0376,-0.0396,-0.0568,-0.0541,-0.0556,-0.0653,-0.0673,-0.0733,-0.0811,-0.0746,-0.0755,-0.0789,-0.0896,-0.0949,-0.0959,-0.1053,-0.1002,-0.1008,-0.1011,-0.1014,-0.1079,-0.1077,0,0,0,0,0,0,-0.0338,-0.0384,-0.0559,-0.0577,-0.0474,-0.0657,-0.068,-0.0693,-0.0814,-0.0833,-0.079,-0.0793,-0.094,-0.0952,-0.0964,-0.0933,-0.1009,-0.1014,-0.1018,-0.1081,-0.1079,-0.1077,0,0,0,0,0,0,-0.0332,-0.0351,-0.0548,-0.049,-0.0522,-0.066,-0.0676,-0.0699,-0.0742,-0.0849,-0.0865,-0.0807,-0.0939,-0.0955,-0.0997,-0.0942,-0.1017,-0.1023,-0.1083,-0.108,-0.1078,-0.0938,0,0,0,0,0,0,-0.0324,-0.0346,-0.0348,-0.0486,-0.0524,-0.063,-0.0678,-0.0705,-0.0767,-0.0773,-0.0869,-0.0882,-0.094,-0.0987,-0.1003,-0.0952,-0.1027,-0.1086,-0.1082,-0.1078,-0.0945,-0.0931,-0.0919,0,0,0,0,0,-0.0314,-0.0327,-0.0346,-0.0368,-0.0519,-0.063,-0.0658,-0.0753,-0.0768,-0.0786,-0.0841,-0.0878,-0.0974,-0.0992,-0.1011,-0.096,-0.1087,-0.1083,-0.1079,-0.0951,-0.0934,-0.0919,0,0,0,0,0,0,-0.0241,-0.0343,-0.0366,-0.041,-0.0499,-0.0648,-0.0693,-0.0741,-0.0807,-0.0801,-0.0882,-0.0899,-0.0912,-0.0958,-0.0976,-0.0965,-0.1025,-0.1025,-0.0922,-0.0906,-0.0893,-0.0858,-0.1032,0,0,0,0,0,-0.022,-0.0247,-0.0359,-0.0395,-0.0435,-0.0553,-0.0611,-0.0663,-0.0745,-0.0775,-0.0835,-0.0881,-0.0914,-0.0927,-0.0979,-0.0987,-0.0999,-0.0956,-0.0943,-0.0931,-0.0913,-0.0901,-0.0885,-0.1062,-0.1062,-0.1062,0,0,-0.0208,-0.0265,-0.0284,-0.038,-0.0461,-0.05,-0.0584,-0.0659,-0.0664,-0.0775,-0.0794,-0.0852,-0.091,-0.0916,-0.0921,-0.0943,-0.0881,-0.0926,-0.0916,-0.0904,-0.0895,-0.0877,-0.0862,-0.1059,-0.106,-0.106,0,0,-0.0198,-0.0238,-0.0257,-0.0311,-0.0409,-0.047,-0.0475,-0.0593,-0.0617,-0.0658,-0.0713,-0.0732,-0.081,-0.0823,-0.0841,-0.0784,-0.0822,-0.0792,-0.0687,-0.0675,-0.066,-0.0647,-0.0609,-0.0594,-0.0772,-0.0771,-0.0771,0,-0.0175,-0.0196,-0.0284,-0.0309,-0.0333,-0.0436,-0.044,-0.049,-0.0593,-0.0582,-0.0635,-0.0698,-0.0756,-0.0724,-0.0706,-0.0749,-0.0749,-0.0744,-0.0656,-0.0644,-0.0633,-0.0598,-0.0583,-0.0764,-0.0765,-0.0766,-0.0766,0,-0.018,-0.0182,-0.0201,-0.0236,-0.0277,-0.0301,-0.0365,-0.0376,-0.0409,-0.0447,-0.0442,-0.0533,-0.056,-0.057,-0.0631,-0.0564,-0.0589,-0.065,-0.0693,-0.0606,-0.0575,-0.0562,-0.0754,-0.0756,-0.0759,-0.076,0,0,-0.013,-0.0186,-0.018,-0.0156,-0.0222,-0.0245,-0.0232,-0.0237,-0.0192,-0.0274,-0.0222,-0.029,-0.0339,-0.0362,-0.0427,-0.0416,-0.0343,-0.0493,-0.0495,-0.0446,-0.0292,-0.0288,-0.0274,-0.0395,-0.0393,-0.0391,-0.0289,0,-0.0087,-0.0072,-0.0122,-0.0075,-0.0057,-0.0107,-0.0079,-0.0086,-0.0105,-0.0083,-0.0137,-0.0136,-0.0257,-0.026,-0.0273,-0.0341,-0.0308,-0.0363,-0.0391,-0.039,-0.0392,-0.0259,-0.0245,-0.0153,-0.0277,-0.0275,-0.0273,0,-0.005,-0.0028,0.0028,0.0068,0.0069,0.0086,0.0155,0.0157,0.0167,0.0154,0.0138,0.0067,0.0063,-0.0058,-0.0099,-0.0134,-0.019,-0.0239,-0.0238,-0.0275,-0.0362,-0.0267,-0.0125,-0.0297,-0.0254,-0.0256,-0.0257,0,0.0081,0.0091,0.0164,0.0171,0.0183,0.0228,0.0237,0.0253,0.0293,0.0312,0.0347,0.0288,0.0286,0.0187,0.0051,-0.0016,0.0019,-0.009,-0.012,-0.012,-0.0132,-0.0137,-0.0154,-0.0076,-0.0076,-0.0076,-0.0076,0,0.0175,0.0241,0.024,0.0293,0.0397,0.0358,0.0464,0.0467,0.0498,0.0586,0.0478,0.0543,0.0345,0.0312,0.0157,0.0079,0.0104,-0.0056,-0.008,-0.0081,-0.0082,-0.0257,-0.0361,-0.0072,-0.0073,-0.0074,-0.0074,0,0.031,0.0303,0.0399,0.0445,0.0463,0.0543,0.0585,0.0657,0.0676,0.0789,0.0806,0.0767,0.0734,0.0554,0.0432,0.0256,0.0076,0.0126,0.0153,0.0129,-0.0105,-0.0201,-0.0227,-0.0294,0.0107,0.0108,0.0109,0,0.0379,0.0446,0.0523,0.0574,0.0598,0.0685,0.0742,0.0755,0.0829,0.0943,0.102,0.1031,0.106,0.0882,0.0603,0.0393,0.019,0.0242,0.0103,-0.0064,-0.019,-0.0283,-0.0345,0.0157,0.0158,0.0159,0.0159,0,0.0534,0.0561,0.0634,0.0732,0.0805,0.0876,0.0959,0.1047,0.1101,0.1216,0.1374,0.1418,0.1268,0.1058,0.0749,0.057,0.012,0.0253,0.0072,-0.0133,-0.0226,-0.032,0.0043,0.0167,0.0167,0.0166,0.0166,0.0165,0.0658,0.0722,0.0803,0.0893,0.0969,0.1066,0.1148,0.1255,0.1413,0.1598,0.164,0.1767,0.1437,0.1023,0.0752,0.0243,0.0212,0.0038,-0.0051,-0.012,-0.0223,0.0177,0.0261,0.0261,0.0261,0.026,0.026,0,0.0807,0.0849,0.0941,0.1049,0.1143,0.1147,0.1288,0.1382,0.1592,0.1798,0.1948,0.1909,0.1495,0.1035,0.0348,-0.0024,-0.0184,-0.0228,-0.0377,-0.042,-0.0058,-0.01,-0.0081,-0.0081,-0.0081,-0.0081,-0.0081,-0.0081,0.0889,0.0998,0.102,0.1186,0.1249,0.1369,0.145,0.1603,0.1766,0.2011,0.2135,0.2207,0.1865,0.0655,-0.0182,-0.0372,-0.0633,-0.0674,-0.0809,-0.0608,-0.0592,-0.0577,-0.0641,-0.0736,-0.0737,-0.1147,-0.1152,-0.1155]}],[{"header":{"parameterUnit":"m.s-1","parameterCategory":2,"la1":30.2991,"la2":30.254,"lo1":-89.0895,"lo2":-89.0444,"dy":0.0017,"dx":0.0017,"nx":28,"ny":28,"refTime":"2024-06-10T03:00:00:Z","depth":"2","parameterNumber":2,"parameterNumberName":"U-component_of_CURRENTS"},"data":[0,0,0,0,0,0,0,0,0,0,0,0,0,0,0,0,0,0,0,0,0,0,0,0,0,0,0,0,0,0,0,0,0,0,0,0,0,0,0,0,0,0,0,0,0,0,0,0,0,0,0,0,0,0,0,0,0,0,0.3028,0.3028,0,0.3193,0.3196,0.32,0.3257,0.3255,0.3253,0.325,0.3478,0.3486,0.3495,0,0,0,0,0,0,0,0,0,0,0,0,0,0.2915,0.2917,0.3028,0.3029,0.3029,0.3192,0.3197,0.3201,0.3258,0.3255,0.3252,0.3249,0.3476,0.3485,0.3495,0,0,0,0,0,0,0,0,0,0,0,0,0,0.3027,0.2918,0.3028,0.3064,0.3067,0.3192,0.3197,0.3202,0.3258,0.3255,0.3251,0.3248,0.3473,0.3485,0.3497,0.3642,0,0,0.3534,0.354,0,0,0,0,0,0,0,0,0.3021,0.3034,0.3058,0.3061,0.3065,0.3185,0.3239,0.3346,0.3259,0.3205,0.325,0.3246,0.3377,0.3397,0.3461,0.3653,0.3662,0.3535,0.3543,0.3548,0.3552,0,0,0,0,0,0,0,0.3013,0.3028,0.3112,0.3058,0.3063,0.3122,0.3135,0.3262,0.3324,0.321,0.321,0.32,0.3381,0.3449,0.3466,0.3666,0.3535,0.3546,0.3554,0.3558,0.4018,0.4023,0,0,0,0,0,0,0.2952,0.302,0.3106,0.3115,0.3013,0.3125,0.314,0.3165,0.3321,0.3336,0.3203,0.3202,0.3429,0.3452,0.3474,0.3674,0.3548,0.356,0.3567,0.4014,0.4019,0.4025,0,0,0,0,0,0,0.295,0.296,0.3099,0.3054,0.3074,0.3127,0.3157,0.317,0.324,0.3311,0.333,0.3256,0.3428,0.3457,0.3645,0.3682,0.3565,0.3576,0.4008,0.4015,0.4022,0.4062,0,0,0,0,0,0,0.2947,0.296,0.297,0.3051,0.3073,0.3141,0.3159,0.3175,0.323,0.3231,0.3365,0.3382,0.3427,0.3627,0.3657,0.3696,0.3586,0.4002,0.4011,0.402,0.4054,0.4069,0.4082,0,0,0,0,0,0.2943,0.2954,0.2971,0.298,0.3083,0.3139,0.3159,0.3197,0.3235,0.3256,0.3408,0.3378,0.3702,0.3644,0.3677,0.372,0.3997,0.4009,0.4019,0.4048,0.4066,0.4082,0,0,0,0,0,0,0.2918,0.2962,0.2981,0.3009,0.3052,0.314,0.3166,0.3218,0.3361,0.3382,0.348,0.3511,0.3688,0.3722,0.3653,0.3883,0.383,0.3848,0.384,0.3859,0.3872,0.3878,0.3596,0,0,0,0,0,0.2914,0.295,0.2984,0.3022,0.303,0.3118,0.3154,0.3184,0.3301,0.3359,0.3477,0.3613,0.3766,0.3821,0.3954,0.4096,0.4071,0.4137,0.4151,0.4162,0.4195,0.4179,0.4192,0.406,0.406,0.406,0,0,0.2921,0.295,0.2972,0.302,0.3071,0.3142,0.3136,0.3186,0.3301,0.3369,0.3591,0.3689,0.3828,0.3993,0.4066,0.4015,0.419,0.4176,0.4184,0.4212,0.4191,0.4203,0.4213,0.4068,0.4066,0.4065,0,0,0.2969,0.2974,0.3021,0.3041,0.3082,0.3155,0.3169,0.3273,0.3356,0.3559,0.3655,0.3788,0.4013,0.4108,0.4191,0.437,0.4287,0.4385,0.4435,0.4418,0.4427,0.4434,0.4402,0.4407,0.4359,0.4359,0.4359,0,0.2967,0.305,0.3043,0.3082,0.3134,0.317,0.3258,0.3357,0.3531,0.3624,0.3623,0.397,0.4076,0.4277,0.4354,0.4397,0.4361,0.4346,0.4427,0.4434,0.4441,0.4407,0.4411,0.4363,0.4362,0.4362,0.4362,0,0.303,0.3109,0.3132,0.323,0.3283,0.3344,0.3443,0.3551,0.3668,0.376,0.3969,0.411,0.4283,0.4332,0.4428,0.4542,0.4493,0.4458,0.4359,0.4455,0.4415,0.4418,0.4367,0.4366,0.4365,0.4364,0,0,0.302,0.3157,0.3165,0.3259,0.3361,0.342,0.3606,0.3775,0.386,0.4016,0.4158,0.4421,0.4415,0.4514,0.4574,0.4585,0.4623,0.4551,0.4549,0.4477,0.4563,0.4378,0.4362,0.4567,0.4569,0.457,0.4507,0,0.3094,0.32,0.3284,0.3474,0.3553,0.3651,0.3796,0.3932,0.4046,0.4172,0.4293,0.4435,0.4499,0.4541,0.4583,0.4623,0.4638,0.4644,0.4523,0.452,0.4306,0.4363,0.4077,0.3983,0.4509,0.451,0.451,0,0.3138,0.322,0.3375,0.3596,0.3632,0.374,0.393,0.4076,0.4222,0.4289,0.4403,0.4458,0.4598,0.4582,0.4653,0.4638,0.4646,0.4637,0.4632,0.4453,0.4341,0.3984,0.3968,0.4514,0.4514,0.4514,0.4513,0,0.3116,0.3317,0.3462,0.351,0.3717,0.3827,0.3957,0.4088,0.4187,0.4336,0.4353,0.4487,0.455,0.4564,0.4612,0.4615,0.4617,0.4588,0.443,0.4415,0.4152,0.411,0.4635,0.4635,0.4635,0.4636,0.4636,0,0.3169,0.3289,0.344,0.3499,0.3633,0.3797,0.3942,0.4044,0.417,0.4222,0.4382,0.439,0.4548,0.4571,0.4587,0.4504,0.4584,0.4459,0.4391,0.4158,0.412,0.4575,0.4569,0.4633,0.4634,0.4634,0.4635,0,0.3144,0.3247,0.3401,0.3583,0.3629,0.3711,0.3906,0.3965,0.4091,0.4155,0.4198,0.4348,0.4349,0.4444,0.4474,0.4445,0.4386,0.435,0.407,0.397,0.4202,0.42,0.413,0.4123,0.4118,0.4113,0.4109,0,0.3153,0.322,0.3373,0.3407,0.3496,0.3638,0.3692,0.3884,0.394,0.4067,0.4062,0.4143,0.4128,0.4117,0.4099,0.4047,0.4222,0.3755,0.373,0.4212,0.4154,0.4161,0.4167,0.34,0.339,0.3383,0.3376,0,0.3156,0.3186,0.3268,0.33,0.3368,0.3471,0.3578,0.3594,0.3784,0.3779,0.3749,0.3743,0.379,0.362,0.3634,0.3573,0.3729,0.3587,0.4146,0.3567,0.3516,0.3461,0.3492,0.3306,0.3313,0.3318,0.3322,0.3325,0.3104,0.3105,0.3158,0.3186,0.3243,0.3255,0.3249,0.3333,0.3333,0.3285,0.3396,0.3282,0.3347,0.3178,0.3056,0.3014,0.3276,0.3164,0.3191,0.3227,0.3149,0.3089,0.2785,0.2788,0.2792,0.2795,0.2797,0,0.2986,0.2998,0.3036,0.3022,0.299,0.3104,0.3119,0.3047,0.2917,0.2944,0.2878,0.2618,0.2516,0.2588,0.2409,0.2391,0.2423,0.2298,0.2336,0.2407,0.2469,0.2357,0.178,0.1777,0.1774,0.1771,0,0,0.2906,0.287,0.2872,0.2758,0.2766,0.267,0.2636,0.2502,0.2475,0.2297,0.2226,0.2397,0.2498,0.2104,0.2054,0.1881,0.2132,0.1808,0.263,0.2745,0.2804,0.2977,0.2883,0,0,0,0,0]},{"header":{"parameterUnit":"m.s-1","parameterCategory":2,"la1":30.2991,"la2":30.254,"lo1":-89.0895,"lo2":-89.0444,"dy":0.0017,"dx":0.0017,"nx":28,"ny":28,"refTime":"2024-06-10T03:00:00:Z","depth":"2","parameterNumber":3,"parameterNumberName":"V-component_of_CURRENTS"},"data":[0,0,0,0,0,0,0,0,0,0,0,0,0,0,0,0,0,0,0,0,0,0,0,0,0,0,0,0,0,0,0,0,0,0,0,0,0,0,0,0,0,0,0,0,0,0,0,0,0,0,0,0,0,0,0,0,0,0,0.0033,0.0034,0,0.0207,0.021,0.0213,0.0261,0.026,0.0258,0.0256,0.0236,0.0237,0.0238,0,0,0,0,0,0,0,0,0,0,0,0,0,-0.0049,-0.0048,0.0033,0.0034,0.0036,0.0207,0.021,0.0213,0.0262,0.026,0.0258,0.0256,0.0236,0.0237,0.0238,0,0,0,0,0,0,0,0,0,0,0,0,0,0.0049,-0.0048,0.0033,0.0075,0.008,0.0206,0.021,0.0214,0.0262,0.026,0.0257,0.0255,0.0235,0.0237,0.0238,0.0298,0,0,0.0243,0.0244,0,0,0,0,0,0,0,0,0.0043,0.0053,0.0067,0.0072,0.0078,0.0203,0.0174,0.023,0.0263,0.0201,0.0256,0.0253,0.0204,0.0208,0.026,0.0297,0.0296,0.0243,0.0244,0.0245,0.0245,0,0,0,0,0,0,0,0.0036,0.0047,0.011,0.0069,0.0076,0.0157,0.0167,0.0187,0.0217,0.0206,0.0208,0.0217,0.0206,0.0259,0.0259,0.0296,0.0243,0.0245,0.0245,0.0246,0.0235,0.0234,0,0,0,0,0,0,-0.0009,0.0039,0.0104,0.0114,0.0046,0.0159,0.0171,0.0172,0.0221,0.0225,0.0218,0.0218,0.0257,0.0257,0.0258,0.0286,0.0245,0.0246,0.0247,0.0236,0.0235,0.0233,0,0,0,0,0,0,-0.0011,-0.0005,0.0097,0.0075,0.0093,0.016,0.0163,0.0176,0.0222,0.0231,0.0232,0.0248,0.0255,0.0256,0.0298,0.0286,0.0247,0.0248,0.0238,0.0236,0.0234,0.0368,0,0,0,0,0,0,-0.0014,-0.0007,-0.0002,0.0072,0.0092,0.0206,0.0165,0.0181,0.0228,0.0229,0.0257,0.0253,0.0253,0.0296,0.0299,0.0287,0.0249,0.0239,0.0237,0.0235,0.0365,0.0371,0.0376,0,0,0,0,0,-0.0018,0.0004,-0.0003,0.0006,0.0089,0.0209,0.0231,0.0275,0.0231,0.0297,0.0293,0.0252,0.0279,0.03,0.0303,0.0291,0.024,0.0237,0.0235,0.0363,0.037,0.0376,0,0,0,0,0,0,-0.0014,0.0013,0.0006,0.0036,0.0125,0.0214,0.026,0.0278,0.0334,0.031,0.0296,0.0297,0.0315,0.0281,0.0303,0.0266,0.0228,0.0226,0.0324,0.033,0.0336,0.0356,0.0251,0,0,0,0,0,-0.002,-0.0004,0.0058,0.0092,0.0119,0.0184,0.0232,0.027,0.0318,0.0341,0.0361,0.0332,0.0311,0.0307,0.0309,0.0327,0.028,0.0293,0.0298,0.0304,0.0315,0.0255,0.0258,0.0224,0.0224,0.0224,0,0,-0.0013,0.0007,0.0015,0.0094,0.0144,0.0234,0.021,0.0294,0.0362,0.0324,0.041,0.0381,0.0322,0.0345,0.034,0.0314,0.0286,0.0301,0.0307,0.0314,0.0253,0.0257,0.026,0.0222,0.0223,0.0223,0,0,0.0041,0.0026,0.007,0.0148,0.0231,0.0275,0.0294,0.0392,0.042,0.0509,0.0454,0.0434,0.0451,0.0409,0.0375,0.0403,0.033,0.0359,0.0407,0.035,0.0353,0.0356,0.0309,0.0306,0.0349,0.0349,0.0349,0,0.0052,0.0112,0.0117,0.0206,0.0262,0.0286,0.0379,0.0433,0.0542,0.0562,0.0543,0.0524,0.0477,0.0447,0.044,0.042,0.0377,0.0403,0.0363,0.0364,0.0365,0.0315,0.0311,0.0355,0.0355,0.0354,0.0353,0,0.0172,0.0219,0.0258,0.0349,0.0419,0.0511,0.0564,0.0628,0.0631,0.0679,0.0689,0.0646,0.0615,0.0569,0.0517,0.0469,0.0436,0.0397,0.0365,0.0378,0.0323,0.0316,0.0364,0.0362,0.036,0.0359,0,0,0.0191,0.0312,0.0326,0.039,0.0498,0.0576,0.0648,0.0737,0.0785,0.0826,0.086,0.0795,0.0749,0.07,0.0611,0.0548,0.0502,0.0471,0.0465,0.0458,0.0383,0.0356,0.0345,0.046,0.0459,0.0459,0.0348,0,0.0286,0.0456,0.0479,0.0633,0.0722,0.0746,0.0835,0.0905,0.093,0.0983,0.0883,0.0892,0.0799,0.0762,0.0687,0.0551,0.0487,0.0536,0.0341,0.0336,0.0339,0.0338,0.0374,0.0278,0.0341,0.034,0.0339,0,0.0398,0.0498,0.0658,0.0779,0.0814,0.09,0.0999,0.1082,0.1122,0.1129,0.1091,0.1036,0.093,0.0843,0.0649,0.0684,0.0541,0.0438,0.043,0.0356,0.0296,0.0268,0.0262,0.0326,0.0327,0.0328,0.0329,0,0.0448,0.0604,0.0724,0.0786,0.0942,0.0985,0.1047,0.113,0.1191,0.1197,0.1216,0.1123,0.1046,0.0881,0.0652,0.0647,0.0438,0.0402,0.0254,0.0251,0.0218,0.0213,0.0268,0.0268,0.0268,0.0269,0.0269,0,0.0554,0.0653,0.0758,0.0853,0.0992,0.1052,0.1174,0.1229,0.1279,0.1354,0.1273,0.1272,0.1048,0.0904,0.0697,0.0456,0.0467,0.027,0.0221,0.0263,0.0263,0.0249,0.0248,0.0265,0.0265,0.0266,0.0267,0,0.0618,0.0695,0.0843,0.0987,0.1033,0.1128,0.1243,0.1335,0.1368,0.1434,0.1426,0.136,0.119,0.0966,0.0689,0.0514,0.0288,0.0193,0.0263,0.0225,0.0132,0.0139,0.0042,0.004,0.0039,0.0038,0.0036,0,0.0683,0.077,0.0927,0.1005,0.107,0.1195,0.13,0.1375,0.1452,0.1491,0.1521,0.1396,0.1317,0.0928,0.062,0.0295,0.0246,0.0108,0.01,0.0147,0.0109,0.0118,0.0127,0.0106,0.0105,0.0105,0.0105,0,0.08,0.0831,0.0942,0.1095,0.1203,0.133,0.1451,0.1525,0.1608,0.1637,0.1646,0.1581,0.1266,0.0953,0.0537,0.033,0.0172,0.009,0.0108,0.0163,0.0199,0.0164,0.0172,0.0101,0.0102,0.0102,0.0102,0.0102,0.086,0.093,0.1044,0.1179,0.1304,0.1438,0.1525,0.1624,0.1721,0.1755,0.1715,0.16,0.1318,0.0776,0.0445,0.012,0.0139,0.0013,0.0017,0.0021,0.0054,0.0085,-0.0027,-0.0027,-0.0028,-0.0028,-0.0028,0,0.094,0.1002,0.1123,0.1275,0.1386,0.1452,0.1617,0.167,0.1751,0.1777,0.1741,0.143,0.1119,0.0786,0.03,0.0016,0.0018,-0.0071,-0.0011,-0.0005,-0.0,0.0034,-0.0054,-0.0055,-0.0056,-0.0057,0,0,0.0984,0.1094,0.1137,0.1309,0.1404,0.1537,0.1619,0.1686,0.1726,0.1699,0.1628,0.1559,0.1191,0.0827,0.0465,0.0189,0.0157,0.0148,0.0202,0.0324,0.0331,0.0086,0.015,0,0,0,0,0]}],[{"header":{"parameterUnit":"m.s-1","parameterCategory":2,"la1":30.2991,"la2":30.254,"lo1":-89.0895,"lo2":-89.0444,"dy":0.0017,"dx":0.0017,"nx":28,"ny":28,"refTime":"2024-06-10T03:00:00:Z","depth":"4","parameterNumber":2,"parameterNumberName":"U-component_of_CURRENTS"},"data":[0,0,0,0,0,0,0,0,0,0,0,0,0,0,0,0,0,0,0,0,0,0,0,0,0,0,0,0,0,0,0,0,0,0,0,0,0,0,0,0,0,0,0,0,0,0,0,0,0,0,0,0,0,0,0,0,0,0,0.1312,0.131,0,0.1143,0.1141,0.1139,0.1077,0.1077,0.1077,0.1078,0.1087,0.1087,0.1087,0,0,0,0,0,0,0,0,0,0,0,0,0,0.1573,0.1569,0.1312,0.131,0.1307,0.1143,0.1141,0.1139,0.1076,0.1077,0.1078,0.1078,0.1087,0.1087,0.1087,0,0,0,0,0,0,0,0,0,0,0,0,0,0.1439,0.1567,0.1312,0.1256,0.1249,0.1143,0.1141,0.1138,0.1076,0.1077,0.1078,0.1078,0.1087,0.1087,0.1087,0.1072,0,0,0.1086,0.1086,0,0,0,0,0,0,0,0,0.1446,0.1429,0.1266,0.1259,0.1252,0.113,0.1236,0.1124,0.1076,0.1143,0.1078,0.1079,0.1117,0.1114,0.108,0.1072,0.1073,0.1086,0.1086,0.1086,0.1086,0,0,0,0,0,0,0,0.1456,0.1436,0.1246,0.1264,0.1255,0.1236,0.1218,0.1214,0.1133,0.1137,0.1132,0.1111,0.1114,0.108,0.108,0.1073,0.1086,0.1086,0.1086,0.1086,0.1051,0.105,0,0,0,0,0,0,0.1473,0.1444,0.1251,0.1241,0.1351,0.1231,0.121,0.117,0.1129,0.1121,0.1111,0.1109,0.108,0.1081,0.1081,0.1146,0.1086,0.1086,0.1085,0.1052,0.1051,0.105,0,0,0,0,0,0,0.1479,0.1457,0.1258,0.134,0.1313,0.1226,0.118,0.1166,0.1176,0.1106,0.1103,0.1141,0.1081,0.1081,0.1116,0.1144,0.1085,0.1085,0.1053,0.1052,0.105,0.1224,0,0,0,0,0,0,0.1487,0.1459,0.1463,0.134,0.1309,0.1226,0.1179,0.1162,0.1159,0.1156,0.1131,0.1129,0.1081,0.1117,0.1116,0.1142,0.1085,0.1054,0.1052,0.1051,0.122,0.1229,0.1238,0,0,0,0,0,0.1496,0.146,0.1464,0.1442,0.1307,0.1226,0.121,0.1151,0.1161,0.1166,0.1159,0.1132,0.1104,0.1118,0.1117,0.1144,0.1054,0.1053,0.1051,0.1216,0.1227,0.1237,0,0,0,0,0,0,0.1558,0.1447,0.1448,0.1379,0.1338,0.1216,0.1204,0.1189,0.1182,0.1201,0.1157,0.1154,0.1189,0.1133,0.1149,0.1115,0.1061,0.1059,0.1186,0.1197,0.1206,0.1319,0.1085,0,0,0,0,0,0.1583,0.1531,0.145,0.1402,0.1391,0.1326,0.1299,0.127,0.123,0.1228,0.1216,0.1186,0.1167,0.1165,0.1138,0.1146,0.1168,0.1142,0.1151,0.116,0.1243,0.13,0.1326,0.1044,0.1044,0.1044,0,0,0.1587,0.1524,0.1494,0.1417,0.1378,0.1354,0.1312,0.1281,0.1273,0.1236,0.1253,0.1246,0.118,0.1181,0.1186,0.1149,0.1238,0.1158,0.1167,0.1246,0.1302,0.1331,0.1356,0.1043,0.1043,0.1044,0,0,0.1552,0.1533,0.1488,0.1475,0.1436,0.1397,0.1413,0.1353,0.1347,0.1352,0.1329,0.1377,0.13,0.1298,0.1272,0.1319,0.1299,0.1259,0.1397,0.145,0.1477,0.1501,0.1537,0.1563,0.1247,0.1247,0.1247,0,0.1589,0.1515,0.147,0.1451,0.1446,0.1433,0.1424,0.1406,0.1373,0.1424,0.1374,0.1404,0.1363,0.1419,0.1422,0.1356,0.1372,0.1372,0.1475,0.1499,0.1521,0.1552,0.1579,0.1255,0.1254,0.1253,0.1253,0,0.1511,0.1509,0.1489,0.1465,0.1455,0.1452,0.1432,0.1474,0.1482,0.1495,0.1585,0.1549,0.1589,0.1542,0.1499,0.1623,0.1579,0.1502,0.1477,0.1562,0.1585,0.161,0.1267,0.1264,0.1262,0.126,0,0,0.1484,0.1446,0.146,0.1481,0.1483,0.1462,0.1502,0.1552,0.1629,0.1649,0.1742,0.1758,0.1831,0.181,0.1776,0.182,0.1967,0.1744,0.1743,0.1836,0.2091,0.1902,0.1909,0.1912,0.1917,0.1922,0.2038,0,0.1473,0.145,0.1424,0.1454,0.1465,0.1508,0.1548,0.1616,0.166,0.1755,0.1826,0.1886,0.189,0.1918,0.1997,0.1975,0.2046,0.1944,0.195,0.1951,0.1819,0.1937,0.194,0.2056,0.2062,0.2066,0.2069,0,0.1429,0.1432,0.1446,0.15,0.1512,0.1533,0.1658,0.1693,0.1852,0.1906,0.2065,0.2088,0.2245,0.2156,0.232,0.2255,0.2236,0.2201,0.2202,0.2007,0.1811,0.1951,0.2115,0.2111,0.2108,0.2105,0.2102,0,0.1436,0.1458,0.1478,0.1497,0.1548,0.1599,0.1648,0.1786,0.1852,0.2035,0.2112,0.2297,0.2367,0.2433,0.2426,0.2384,0.2528,0.2427,0.2257,0.2241,0.2304,0.2277,0.2554,0.2554,0.2554,0.2553,0.2553,0,0.1422,0.1452,0.1501,0.152,0.159,0.1636,0.1729,0.1833,0.1982,0.2095,0.2229,0.2307,0.2442,0.2511,0.2501,0.2486,0.2611,0.2359,0.2287,0.2358,0.2337,0.232,0.2291,0.2557,0.2557,0.2556,0.2555,0,0.1398,0.1428,0.147,0.1554,0.1583,0.1646,0.1734,0.1807,0.1993,0.2129,0.2194,0.2374,0.2479,0.2552,0.2614,0.2551,0.2531,0.2471,0.2578,0.2497,0.2195,0.2173,0.2341,0.2336,0.2331,0.2328,0.2325,0,0.1323,0.1374,0.1487,0.1516,0.1546,0.1627,0.1671,0.1811,0.1884,0.2132,0.2187,0.2346,0.2437,0.2432,0.2497,0.2508,0.2445,0.2439,0.2339,0.2275,0.2189,0.2173,0.2157,0.2318,0.2317,0.2315,0.2314,0,0.1251,0.1356,0.1405,0.1475,0.1511,0.1542,0.1625,0.1663,0.1848,0.2019,0.2138,0.2185,0.2284,0.2331,0.2354,0.2335,0.2457,0.2394,0.2401,0.2307,0.2249,0.2163,0.2153,0.2299,0.2302,0.2303,0.2304,0,0.1229,0.1251,0.1357,0.1404,0.1452,0.1458,0.149,0.156,0.1644,0.1932,0.1946,0.2112,0.2265,0.2237,0.2247,0.2241,0.2196,0.2114,0.2136,0.2153,0.203,0.1925,0.188,0,0,0,0,0,0.1211,0.1223,0.1262,0.1292,0.1339,0.1377,0.1464,0.1509,0.1671,0.1716,0.1844,0.1918,0.1976,0.2034,0.1987,0.2127,0.2181,0.2058,0.2093,0.2217,0.2234,0.21,0,0,0,0,0,0,0.119,0.1231,0.1236,0.1198,0.1214,0.1228,0.1286,0.139,0.1421,0.162,0.1652,0.1814,0.1878,0.2008,0.1965,0.1982,0.1961,0.2159,0.2153,0.2207,0.2222,0.2236,0.2105,0,0,0,0,0]},{"header":{"parameterUnit":"m.s-1","parameterCategory":2,"la1":30.2991,"la2":30.254,"lo1":-89.0895,"lo2":-89.0444,"dy":0.0017,"dx":0.0017,"nx":28,"ny":28,"refTime":"2024-06-10T03:00:00:Z","depth":"4","parameterNumber":3,"parameterNumberName":"V-component_of_CURRENTS"},"data":[0,0,0,0,0,0,0,0,0,0,0,0,0,0,0,0,0,0,0,0,0,0,0,0,0,0,0,0,0,0,0,0,0,0,0,0,0,0,0,0,0,0,0,0,0,0,0,0,0,0,0,0,0,0,0,0,0,0,0.0237,0.0239,0,0.0362,0.0363,0.0364,0.042,0.042,0.042,0.042,0.0471,0.0472,0.0473,0,0,0,0,0,0,0,0,0,0,0,0,0,0.008,0.0083,0.0237,0.0239,0.0241,0.0362,0.0363,0.0364,0.042,0.042,0.042,0.042,0.047,0.0472,0.0473,0,0,0,0,0,0,0,0,0,0,0,0,0,0.0169,0.0083,0.0237,0.0285,0.029,0.0361,0.0363,0.0365,0.042,0.042,0.042,0.042,0.047,0.0472,0.0473,0.0483,0,0,0.0479,0.048,0,0,0,0,0,0,0,0,0.0163,0.0174,0.0276,0.0282,0.0288,0.0378,0.0327,0.0402,0.042,0.0368,0.042,0.042,0.0434,0.0439,0.046,0.0485,0.0487,0.0479,0.0481,0.0481,0.0482,0,0,0,0,0,0,0,0.0157,0.0169,0.0284,0.0278,0.0285,0.0312,0.0324,0.0341,0.0396,0.0373,0.0378,0.0395,0.0437,0.0458,0.0461,0.0488,0.0479,0.0481,0.0482,0.0483,0.0501,0.05,0,0,0,0,0,0,0.0145,0.0163,0.028,0.0288,0.0228,0.0314,0.0328,0.0347,0.0397,0.0407,0.0395,0.0398,0.0455,0.0459,0.0463,0.0499,0.0481,0.0483,0.0484,0.0502,0.0501,0.05,0,0,0,0,0,0,0.0142,0.0155,0.0275,0.023,0.0248,0.0317,0.0338,0.0349,0.0385,0.0416,0.0423,0.0421,0.0455,0.046,0.05,0.05,0.0484,0.0486,0.0502,0.0501,0.05,0.0557,0,0,0,0,0,0,0.0136,0.0152,0.0166,0.0229,0.025,0.0327,0.0338,0.0352,0.0396,0.0401,0.044,0.0445,0.0455,0.0497,0.0502,0.0503,0.0487,0.0503,0.0502,0.0501,0.0556,0.0558,0.056,0,0,0,0,0,0.013,0.0165,0.0166,0.018,0.0265,0.0329,0.0342,0.0389,0.0398,0.042,0.045,0.0444,0.049,0.05,0.0505,0.0506,0.0504,0.0502,0.0501,0.0555,0.0558,0.056,0,0,0,0,0,0,0.0114,0.0175,0.0178,0.023,0.0273,0.0339,0.0376,0.0396,0.0439,0.0447,0.0462,0.047,0.0495,0.0489,0.0499,0.05,0.0485,0.0484,0.0524,0.0526,0.0528,0.0553,0.0489,0,0,0,0,0,0.0111,0.0153,0.02,0.0245,0.0264,0.0314,0.0348,0.0378,0.0423,0.0444,0.0469,0.0481,0.049,0.0503,0.0511,0.0532,0.0489,0.0522,0.0524,0.0526,0.0545,0.0476,0.0473,0.0495,0.0495,0.0495,0,0,0.0117,0.016,0.0182,0.0244,0.0283,0.0327,0.0336,0.0396,0.0434,0.044,0.05,0.0498,0.0496,0.0518,0.0525,0.0519,0.0491,0.0524,0.0527,0.0545,0.0474,0.0472,0.047,0.0494,0.0494,0.0494,0,0,0.017,0.0185,0.0238,0.027,0.0332,0.0354,0.0369,0.043,0.0456,0.0508,0.0507,0.0515,0.0545,0.0541,0.054,0.0553,0.0504,0.0538,0.0578,0.051,0.0508,0.0506,0.0428,0.0419,0.054,0.054,0.054,0,0.0172,0.0243,0.0263,0.032,0.0351,0.0364,0.0415,0.0444,0.0511,0.0535,0.0532,0.0552,0.0554,0.0561,0.0573,0.0561,0.0511,0.0578,0.0514,0.0512,0.0509,0.0429,0.0419,0.0542,0.0542,0.0542,0.0542,0,0.0261,0.031,0.0346,0.0408,0.0437,0.0488,0.0513,0.0551,0.0569,0.059,0.0609,0.06,0.0612,0.0594,0.0605,0.0579,0.0546,0.0526,0.0516,0.051,0.0426,0.0414,0.0546,0.0545,0.0544,0.0544,0,0,0.028,0.0386,0.0396,0.0434,0.0486,0.052,0.0574,0.0622,0.0655,0.0672,0.0693,0.0701,0.0682,0.0678,0.0652,0.0603,0.0539,0.0573,0.0568,0.0509,0.0378,0.0374,0.0359,0.0509,0.0507,0.0506,0.0321,0,0.034,0.0452,0.0486,0.0566,0.0614,0.0633,0.0683,0.0721,0.0731,0.0748,0.0713,0.0717,0.0711,0.0705,0.066,0.0575,0.0513,0.0591,0.0382,0.0376,0.0384,0.0347,0.0502,0.0312,0.0309,0.0307,0.0305,0,0.0411,0.0475,0.0573,0.0651,0.0671,0.0715,0.0769,0.0821,0.0838,0.0845,0.0829,0.0787,0.0742,0.0711,0.0567,0.0618,0.0517,0.0433,0.0423,0.0399,0.0349,0.032,0.0282,0.0284,0.0286,0.0287,0.0289,0,0.0421,0.0527,0.0605,0.0632,0.0723,0.0771,0.0817,0.0859,0.0905,0.0894,0.0892,0.0821,0.078,0.0652,0.0519,0.0535,0.0324,0.0309,0.0196,0.0193,0.023,0.0234,0.0183,0.0183,0.0183,0.0184,0.0184,0,0.0476,0.0536,0.0618,0.0666,0.075,0.08,0.0882,0.0924,0.0959,0.0995,0.0941,0.0908,0.0767,0.0637,0.0504,0.032,0.0305,0.0201,0.0148,0.0253,0.0262,0.0219,0.0226,0.0177,0.0178,0.018,0.0181,0,0.0499,0.0561,0.0645,0.0736,0.0771,0.0833,0.094,0.0993,0.1026,0.1055,0.1052,0.0966,0.0811,0.0641,0.0411,0.0307,0.0118,0.0049,0.0164,0.0121,0.003,0.0042,-0.0101,-0.0103,-0.0104,-0.0105,-0.0106,0,0.0529,0.0579,0.068,0.0734,0.0787,0.0883,0.0959,0.103,0.1077,0.1082,0.1084,0.0953,0.0872,0.0537,0.0364,0.0082,0.0054,-0.0057,0.0009,0.0039,0.0002,0.0016,0.0029,-0.0108,-0.0109,-0.0109,-0.0109,0,0.0562,0.0596,0.066,0.0768,0.0849,0.0942,0.1043,0.1074,0.1149,0.1163,0.1096,0.094,0.0757,0.0528,0.0316,0.0116,0.0013,-0.0072,-0.007,-0.0009,0.0029,-0.0004,0.0011,-0.0114,-0.0114,-0.0113,-0.0113,0,0.0571,0.0603,0.0685,0.0781,0.0884,0.0973,0.1027,0.1077,0.1126,0.1139,0.1099,0.0921,0.0828,0.054,0.0336,0.0154,0.0114,0.0053,0.0048,0.0051,0.0169,0.0244,0.0118,0,0,0,0,0,0.0572,0.0612,0.0695,0.0797,0.0903,0.097,0.1074,0.1119,0.1167,0.1131,0.1129,0.0961,0.0678,0.0545,0.0362,0.0301,0.0073,0.0077,-0.0002,-0.0141,-0.0135,-0.002,0,0,0,0,0,0,0.0568,0.0641,0.068,0.0795,0.0872,0.0986,0.1054,0.1091,0.1076,0.1095,0.0945,0.0904,0.0626,0.0784,0.0353,0.0299,0.022,-0.0042,-0.0047,-0.0144,-0.0139,-0.0134,-0.0014,0,0,0,0,0]}]]